TimeEST,TemperatureF,Dew PointF,Humidity,Sea Level PressureIn,VisibilityMPH,Wind Direction,Wind SpeedMPH,Gust SpeedMPH,PrecipitationIn,Events,Conditions,WindDirDegrees,DateUTC
12:58 AM,34.3,32.7,94,30.25,10.0,ESE,5.8,-,N/A,,Overcast,120,2014-01-10 05:58:00
1:13 AM,33.8,32.0,93,30.22,10.0,ESE,4.6,-,N/A,,Overcast,120,2014-01-10 06:13:00
1:58 AM,34.9,33.1,93,30.24,10.0,East,3.5,-,N/A,,Overcast,90,2014-01-10 06:58:00
2:48 AM,35.6,33.8,93,30.21,10.0,ESE,2.3,-,N/A,,Overcast,110,2014-01-10 07:48:00
2:53 AM,35.6,33.8,93,30.21,10.0,East,1.2,-,N/A,,Overcast,100,2014-01-10 07:53:00
2:58 AM,35.6,34.0,94,30.24,10.0,East,3.5,-,N/A,,Overcast,90,2014-01-10 07:58:00
3:03 AM,35.6,33.8,93,30.21,10.0,East,3.5,-,N/A,,Overcast,90,2014-01-10 08:03:00
3:58 AM,36.3,34.5,93,30.23,10.0,East,3.5,-,N/A,,Overcast,100,2014-01-10 08:58:00
4:33 AM,35.6,35.6,100,30.19,10.0,East,3.5,-,N/A,,Overcast,100,2014-01-10 09:33:00
4:58 AM,36.1,34.5,94,30.21,10.0,East,4.6,-,N/A,,Overcast,80,2014-01-10 09:58:00
5:03 AM,35.6,35.6,100,30.18,10.0,East,4.6,-,N/A,,Overcast,90,2014-01-10 10:03:00
5:58 AM,36.9,35.8,96,30.21,10.0,ESE,2.3,-,N/A,,Overcast,110,2014-01-10 10:58:00
6:58 AM,38.5,37.4,96,30.20,10.0,ESE,3.5,-,N/A,,Overcast,110,2014-01-10 11:58:00
7:58 AM,39.4,38.7,97,30.20,10.0,ESE,5.8,-,N/A,,Overcast,120,2014-01-10 12:58:00
8:58 AM,42.1,40.8,95,30.19,10.0,ESE,5.8,-,N/A,,Overcast,120,2014-01-10 13:58:00
9:08 AM,42.8,41.0,93,30.16,10.0,ESE,5.8,-,N/A,,Overcast,110,2014-01-10 14:08:00
9:38 AM,44.6,42.8,93,30.16,10.0,ESE,5.8,-,N/A,,Overcast,110,2014-01-10 14:38:00
9:58 AM,44.1,43.0,96,30.19,10.0,ESE,8.1,-,N/A,,Overcast,120,2014-01-10 14:58:00
10:08 AM,44.6,42.8,93,30.16,7.0,SE,8.1,-,N/A,,Overcast,140,2014-01-10 15:08:00
10:58 AM,46.0,45.0,96,30.17,6.0,SE,8.1,-,N/A,,Overcast,140,2014-01-10 15:58:00
11:38 AM,48.2,46.4,93,30.11,10.0,SE,10.4,-,N/A,,Overcast,130,2014-01-10 16:38:00
11:58 AM,48.4,46.2,92,30.13,10.0,SSE,11.5,-,N/A,,Overcast,160,2014-01-10 16:58:00
12:55 PM,48.9,46.2,90,30.07,10.0,SE,11.5,-,N/A,,Overcast,140,2014-01-10 17:55:00
1:09 PM,50.0,46.4,87,30.04,10.0,SE,9.2,-,N/A,,Overcast,140,2014-01-10 18:09:00
1:55 PM,49.5,46.4,89,30.02,10.0,SE,13.8,-,N/A,,Overcast,140,2014-01-10 18:55:00
2:20 PM,50.0,46.4,87,29.99,10.0,SSE,9.2,-,N/A,,Overcast,150,2014-01-10 19:20:00
2:58 PM,50.0,47.5,91,29.98,10.0,SSE,12.7,-,N/A,,Overcast,150,2014-01-10 19:58:00
3:18 PM,50.0,48.2,94,29.95,10.0,SE,12.7,-,N/A,,Overcast,130,2014-01-10 20:18:00
3:58 PM,50.9,47.5,88,29.95,10.0,SE,12.7,-,N/A,,Overcast,140,2014-01-10 20:58:00
4:58 PM,51.4,48.0,88,29.93,10.0,SE,11.5,-,N/A,,Overcast,140,2014-01-10 21:58:00
5:58 PM,50.9,47.8,89,29.90,10.0,SE,8.1,-,N/A,,Overcast,140,2014-01-10 22:58:00
6:03 PM,50.0,48.2,94,29.88,10.0,SE,8.1,-,N/A,,Overcast,140,2014-01-10 23:03:00
6:28 PM,50.0,48.2,94,29.89,10.0,South,5.8,-,N/A,,Overcast,170,2014-01-10 23:28:00
6:58 PM,49.8,47.5,92,29.89,10.0,SE,9.2,-,N/A,,Overcast,140,2014-01-10 23:58:00
7:18 PM,50.0,48.2,94,29.86,10.0,SSE,5.8,-,N/A,,Overcast,160,2014-01-11 00:18:00
7:58 PM,49.5,47.5,93,29.87,10.0,South,8.1,-,N/A,,Overcast,170,2014-01-11 00:58:00
8:13 PM,50.0,48.2,94,29.84,10.0,SSE,11.5,-,N/A,,Overcast,160,2014-01-11 01:13:00
8:38 PM,51.8,48.2,88,29.82,10.0,South,18.4,-,N/A,,Overcast,170,2014-01-11 01:38:00
8:43 PM,51.8,48.2,88,29.81,10.0,SSE,18.4,-,N/A,,Mostly Cloudy,160,2014-01-11 01:43:00
8:58 PM,51.1,48.0,89,29.81,10.0,SSE,16.1,-,N/A,,Partly Cloudy,150,2014-01-11 01:58:00
9:58 PM,52.3,48.2,86,29.78,10.0,SSE,12.7,-,N/A,,Scattered Clouds,160,2014-01-11 02:58:00
10:53 PM,51.8,48.2,88,29.71,10.0,SSE,15.0,-,N/A,,Light Drizzle,160,2014-01-11 03:53:00
10:58 PM,52.7,48.7,86,29.72,10.0,SSE,16.1,-,0.00,,Light Drizzle,150,2014-01-11 03:58:00
11:07 PM,51.8,48.2,88,29.70,10.0,SSE,16.1,-,N/A,,Mostly Cloudy,160,2014-01-11 04:07:00
11:44 PM,53.6,50.0,88,29.69,10.0,South,12.7,24.2,N/A,Rain-Thunderstorm,Light Rain,180,2014-01-11 04:44:00
11:49 PM,53.6,50.0,88,29.72,10.0,West,18.4,19.6,N/A,Rain-Thunderstorm,Light Rain,270,2014-01-11 04:49:00
11:53 PM,53.6,50.0,88,29.72,6.0,WNW,13.8,19.6,N/A,Rain-Thunderstorm,Heavy Thunderstorms and Rain,290,2014-01-11 04:53:00
11:58 PM,53.6,50.0,88,29.73,3.0,West,10.4,-,0.02,Rain-Thunderstorm,Heavy Thunderstorms and Rain,270,2014-01-11 04:58:00